星链-37635(STARLINK-37635)

导读

STARLINK-37635(NORAD编号69029)是美国太空探索技术公司(SpaceX)星链(Starlink)低轨卫星互联网星座的成员卫星。星链项目旨在通过大规模部署低轨道卫星,为全球尤其是地面基础设施难以覆盖的偏远区域提供高速低延迟的互联网接入服务,该卫星运行在近地轨道,承担星座组网通信功能,助力实现全球网络覆盖,推动数字互联互通。作为星链批量部署的卫星之一,它是SpaceX构建全球低轨卫星通信网络的组成部分,目前处于在轨运行状态,服务于星链的全球互联网通信业务。

Basic Information
目录编号:
69029
目录名称:
STARLINK-37635
国际标识:
2026-101E
轨道中心:
EARTH
卫星名称:
星链-37635
卫星全名:
星链-37635(STARLINK-37635)
卫星状态:
在轨 (已飞行121 天)
发射日期:
2026-05-06 UTC
国别 :
美国 (US)
星等 :
--
Orbit Information
数据来源 国际轨道数据 AOE轨道数据
星历时间 2026-09-03T21:57:32+0800
16小时前
查看轨道信息
2026-08-31T23:00:00+0800
3天前
查看轨道信息
半长轴 6843.661km 6843.611km
偏心率 0.0002161 0.0001957
轨道倾角 97.287° 97.284°
近地点辐角 94.823° 93.338°
升交点赤经 100.270° 97.352°
平近点角 265.326° 155.756°
近地点 464.045km 464.134km
远地点 467.003km 466.814km
周期 93.906分钟 93.905分钟
每日圈数 15.334516 15.334685
Detailed Information
固有亮度:
5
最大亮度:
2.5
卫星平台:
Starlink V1.0
覆盖范围:
全球
运营商:
太空探索技术公司
运营商所在国:
美国
制造商(研发单位):
太空探索技术公司
制造商所在国:
美国
使用方式:
暂无
Satellite Introduction
Starlink 计划是 SpaceX 推出的全球卫星互联网项目,通过发射低轨道卫星,为全球尤其是偏远地区提供高速、低延迟的互联网服务。自 2019 年起,Starlink 已部署数千颗卫星,旨在缩小全球数字鸿沟,推动互联网普及。该项目还为军事、航空等行业提供通信支持,带来广泛经济效益。
2D Orbit Map
3D Orbit Map
Orbit Altitude Analysis Chart
Orbit Inclination Analysis Chart
Orbit Comprehensive Analysis Chart
View Comprehensive Chart
Conjunction Data List
Event ID Objects TCA Miss Dist (km) Collision Risk Probability Collision Risk Index (CRI) Action
CDM_260829-102405-227006-902922
2026-08-29T
10:24:29+0000
1.832 km
极远距离
2.384463E-6 低风险 0.43
CDM_260906-042401-258606-902921
SL-3 R/B (12586)
2026-09-06T
04:24:30+0000
2.463 km
极远距离
1.818134E-6 低风险 0.4
CDM_260904-221404-814806-902921
2026-09-04T
22:14:54+0000
2.901 km
极远距离
9.915294E-7 极低风险 0.35
CDM_260903-162305-317406-902922
2026-09-03T
16:23:33+0000
2.843 km
极远距离
8.693721E-7 极低风险 0.34